Theta_e
305 304 303 303 303 304 304 304 305 303 303 303 302 302 302 305 307 309 309 312 312 314 316 317 320 322 321 321 322 324 325 326 329 327 323 324 325 325 326 324 326 326 326 326 326 332 336 335 336 339 332 339 339 342
304 303 303 303 303 303 304 304 304 304 303 304 303 302 303 302 304 307 308 311 311 310 314 316 317 318 319 320 321 322 324 323 328 327 326 322 326 321 324 328 325 329 325 328 326 328 326 335 335 337 340 339 342 341
304 303 303 303 303 303 303 303 304 305 303 303 304 303 303 304 302 304 307 307 310 310 313 315 316 316 318 319 319 321 324 328 327 326 327 325 326 321 326 327 331 331 327 332 332 335 334 337 338 339 338 339 342 342
303 303 303 303 303 303 303 303 303 305 303 303 304 303 302 304 303 302 304 305 309 310 308 316 318 319 321 322 321 319 320 325 326 327 327 325 325 325 326 327 330 329 333 333 335 336 336 337 338 340 343 344 343 343
303 303 303 303 303 303 303 303 303 304 303 303 303 304 303 303 303 302 303 305 306 309 310 312 316 317 319 319 322 324 323 322 324 327 324 323 322 324 322 327 332 331 334 335 337 336 336 341 345 342 341 342 342 341
302 302 303 303 303 303 303 304 303 303 304 303 304 303 303 303 302 302 309 311 312 312 310 314 317 319 321 326 322 325 326 327 328 329 326 328 328 326 333 335 333 336 337 337 337 338 338 340 342 343 342 344 344 343
302 302 302 302 302 303 303 305 305 305 305 303 301 301 301 301 301 301 308 310 309 310 311 316 316 323 322 324 326 327 328 329 330 330 327 328 329 326 329 336 335 336 337 338 338 338 340 343 346 345 343 345 344 341
302 302 302 303 303 303 304 305 304 303 302 301 301 301 301 301 301 302 303 309 309 310 312 317 320 322 327 327 329 329 330 330 330 330 328 326 327 324 330 329 334 336 337 337 338 338 338 342 345 345 345 344 341 338
302 303 303 303 303 303 304 304 304 302 301 301 301 301 301 302 302 304 307 310 311 313 313 316 323 325 326 325 327 329 328 330 329 328 325 327 326 328 330 333 336 335 336 336 336 337 340 341 345 345 343 341 338 337
303 302 302 304 304 303 301 301 301 301 301 301 302 301 302 304 307 310 310 311 312 312 311 311 317 325 325 324 326 329 327 330 331 330 328 326 324 328 333 335 336 335 336 337 340 341 344 345 345 342 340 338 337 336
302 302 303 303 303 302 302 303 303 302 302 303 303 305 309 311 311 311 313 314 313 313 310 312 317 324 326 326 327 327 328 326 332 330 332 327 325 331 334 335 336 336 337 336 335 337 339 341 342 340 337 336 334 334
302 302 302 302 302 302 302 303 302 302 302 303 304 305 307 310 312 313 313 314 316 318 315 316 319 324 328 327 328 326 328 327 330 326 331 332 325 334 335 335 338 337 337 337 336 337 340 342 340 338 336 335 335 333
303 303 302 302 302 302 303 303 302 301 302 303 307 308 310 310 310 311 314 316 321 319 320 325 325 325 327 328 327 327 331 332 325 327 332 328 328 337 337 337 339 339 338 338 339 340 340 339 337 336 334 332 331 331
302 302 303 302 302 303 303 301 302 301 303 305 309 308 311 312 311 311 314 316 316 317 321 325 325 326 326 326 326 330 326 328 332 330 331 332 337 336 338 338 339 340 340 340 339 338 338 336 336 333 332 330 330 331
302 302 302 302 302 303 302 301 301 302 304 307 309 310 312 311 311 311 312 314 317 319 322 325 324 326 326 326 327 327 330 331 331 332 328 336 337 337 337 338 338 338 337 336 335 335 334 333 332 331 331 333 332 330
303 303 304 303 302 302 301 302 302 304 307 308 309 310 310 311 313 314 315 319 322 322 325 325 324 326 327 327 328 329 331 330 327 326 334 335 335 335 335 336 336 336 336 335 334 332 332 332 332 332 331 331 330 329
303 304 304 302 302 303 303 303 306 307 307 308 310 310 310 310 310 312 315 318 322 324 323 324 327 330 325 328 329 327 328 325 330 333 334 333 333 334 335 335 335 334 334 332 331 332 330 330 329 326 325 325 324 324
302 302 302 303 305 304 304 304 305 306 308 308 310 310 311 312 314 315 319 323 324 324 324 324 326 327 327 329 328 324 326 330 330 331 330 331 333 333 333 332 332 331 331 330 330 328 326 325 324 323 322 319 315 312
306 304 304 305 306 307 308 309 307 309 310 310 311 313 314 317 318 320 321 325 325 325 324 324 325 325 324 326 328 325 331 330 330 329 329 331 332 331 330 330 330 330 330 328 326 325 323 322 320 318 315 312 309 308
307 307 307 307 308 307 308 311 311 312 314 315 315 315 317 321 321 320 321 324 324 325 325 326 326 325 326 327 328 330 330 329 330 329 328 329 329 329 329 329 329 329 327 324 322 319 315 312 309 308 307 307 307 307
311 311 311 310 310 309 310 312 312 314 315 315 316 319 321 322 320 319 319 320 320 318 320 320 322 325 328 329 330 329 330 333 329 330 330 329 328 327 327 326 324 322 318 315 313 311 311 310 309 309 308 309 308 308
312 312 312 311 311 312 312 312 314 314 314 315 317 319 320 321 320 318 318 318 317 318 318 320 324 327 327 327 329 328 330 331 330 330 329 328 327 326 324 319 317 315 315 315 314 313 312 311 310 309 309 309 309 308
312 312 312 312 312 313 313 313 314 315 316 316 319 319 320 320 319 318 317 317 317 318 320 323 326 327 327 328 329 330 330 330 330 329 328 327 323 321 320 319 319 318 316 314 312 311 312 313 310 308 308 307 307 307
312 313 313 314 313 313 314 314 315 316 317 318 319 320 320 319 319 318 318 317 318 320 322 325 326 328 327 328 328 329 330 329 329 328 324 322 321 321 320 317 316 316 315 313 311 310 309 309 308 308 308 308 308 308
313 313 313 313 315 315 316 318 318 319 319 319 320 319 317 319 319 319 318 318 319 320 323 325 326 328 329 328 327 326 325 324 323 323 323 323 322 318 316 317 316 315 313 311 310 309 309 308 308 308 308 308 308 308
309 313 314 316 315 317 318 320 320 320 318 319 319 318 318 318 319 319 317 319 320 321 322 324 325 327 327 327 328 327 326 324 324 324 321 321 320 319 318 317 315 313 311 310 310 308 308 308 308 308 308 308 308 308
313 317 316 316 316 316 317 318 319 319 322 322 320 319 320 320 319 317 317 319 320 321 322 323 324 325 326 325 325 325 324 324 324 322 321 320 319 319 318 315 314 313 312 311 310 309 308 307 308 309 308 308 307 308
316 317 316 316 317 317 317 317 319 321 320 321 322 320 322 320 317 317 319 321 322 322 322 322 319 317 317 320 317 315 317 319 320 319 320 319 319 315 313 313 313 313 312 311 310 309 308 308 308 308 307 308 308 309
317 317 317 317 318 318 318 318 318 319 319 320 317 317 318 317 317 318 321 322 323 322 322 321 315 313 311 310 310 311 312 314 315 314 314 313 313 312 311 312 312 311 310 310 310 309 308 308 308 308 308 308 308 308
317 318 318 318 317 318 319 319 320 319 320 320 319 318 318 318 318 318 318 320 323 323 323 322 321 317 317 317 317 317 318 318 316 314 311 310 310 310 309 307 308 308 308 308 307 307 307 307 307 307 309 310 310 310
318 318 318 318 318 319 319 320 319 318 318 318 318 318 318 318 318 318 318 317 317 317 318 318 319 319 320 319 319 319 319 314 311 311 311 310 310 310 309 309 307 307 306 307 307 308 308 309 309 310 310 310 310 311
318 318 318 317 318 319 320 319 318 318 318 318 318 318 317 317 317 317 316 315 315 316 316 315 315 315 314 313 313 312 312 312 312 312 311 310 310 310 309 309 308 308 308 308 308 308 308 308 310 310 310 310 310 311
319 319 319 318 318 319 319 319 319 319 319 319 318 318 318 318 317 316 316 316 315 314 314 314 313 314 314 313 312 313 313 312 312 311 311 310 309 310 310 309 309 308 308 308 307 308 308 309 309 310 311 311 311 311
Wind_Speed
14 12 13 12 11 11 11 11 11 9 10 11 11 11 11 8 8 6 4 4 5 5 17 16 8 4 7 5 1 7 8 4 5 2 2 4 3 6 4 5 7 6 7 4 3 4 2 9 6 7 7 16 17 14
12 11 11 13 12 10 11 12 12 10 10 10 11 10 10 9 8 8 3 4 6 11 12 16 18 19 18 16 13 4 4 5 2 3 3 2 2 2 5 4 1 3 6 7 6 6 3 10 4 10 28 26 17 15
11 13 12 13 12 12 13 12 11 10 10 11 11 11 10 10 8 10 7 6 9 11 21 22 26 19 17 22 24 10 6 3 1 10 4 3 5 4 4 4 4 1 3 5 4 2 3 20 26 23 22 21 16 13
12 11 12 12 12 13 13 12 11 9 9 9 10 11 11 11 10 11 11 6 7 5 4 8 10 14 10 9 19 26 27 17 17 15 8 4 3 4 4 4 4 4 5 7 3 4 17 15 23 25 24 21 19 14
12 12 13 12 12 12 11 10 9 8 8 9 11 11 11 11 12 13 13 10 11 9 4 14 30 20 16 19 18 21 23 23 16 4 3 4 3 2 1 2 2 5 7 5 5 21 10 22 27 25 24 21 17 15
12 13 13 13 12 12 12 10 10 10 10 11 11 12 12 12 12 9 3 7 12 13 4 4 10 12 8 12 17 16 18 14 7 4 7 7 3 1 3 2 4 8 13 14 10 19 27 30 27 24 24 20 17 13
13 13 13 13 13 14 11 10 8 9 10 10 10 12 12 12 12 8 3 4 12 7 3 5 7 5 9 13 14 12 11 8 5 5 6 4 3 2 3 3 4 10 11 18 32 39 26 31 30 26 21 20 17 14
14 14 15 15 14 10 9 8 7 8 8 9 11 13 13 12 13 12 14 10 18 6 4 3 4 5 17 8 5 4 6 5 5 6 5 3 4 1 1 2 16 25 34 33 34 29 31 30 30 28 24 21 19 17
15 15 12 10 8 7 7 7 7 8 9 13 17 15 13 9 6 3 7 11 13 7 3 4 3 4 12 7 8 3 2 3 2 3 3 1 2 3 6 23 30 33 24 26 22 22 27 30 30 28 25 22 20 19
12 9 9 6 5 5 7 7 8 11 14 14 10 4 4 4 7 6 4 5 8 8 9 4 6 4 11 9 7 7 3 3 2 3 7 2 3 4 15 28 32 20 31 29 31 25 29 31 31 28 23 19 18 19
8 7 6 5 4 5 8 7 8 8 8 2 2 3 5 6 9 7 6 7 8 5 10 11 21 5 15 7 6 8 2 2 4 3 2 4 4 2 15 27 21 30 29 26 18 21 24 27 31 27 22 19 18 17
7 6 6 6 6 6 8 7 7 5 6 5 8 12 8 4 6 3 3 4 6 5 9 9 12 12 3 16 5 3 4 2 2 2 4 2 4 5 19 24 24 27 26 16 16 22 23 30 29 24 22 21 19 17
8 8 7 9 9 7 8 8 7 7 9 9 4 4 5 4 2 5 6 4 4 4 9 11 5 5 4 4 3 2 3 3 10 3 6 5 6 16 22 25 27 24 20 22 24 24 28 28 23 19 21 19 18 20
10 11 9 7 6 8 8 7 9 6 4 4 3 4 3 4 4 5 5 4 9 9 11 11 6 5 1 3 2 3 1 3 3 5 8 4 21 20 26 27 30 26 25 25 27 26 24 22 21 20 17 18 20 21
11 8 6 6 8 8 8 7 3 4 3 4 4 4 5 8 9 19 24 15 15 13 10 7 9 8 2 0 2 2 5 4 4 4 3 15 22 26 29 32 31 31 29 27 25 24 22 22 22 22 20 19 19 22
9 7 6 8 10 9 6 4 3 3 4 4 6 4 10 11 11 9 12 8 7 9 7 3 4 5 4 4 3 3 3 5 3 2 8 25 28 29 31 32 33 31 29 27 25 24 25 26 27 27 24 21 19 19
7 6 8 11 9 6 3 1 1 4 5 4 5 9 18 18 16 19 10 11 11 2 2 1 2 3 3 1 1 3 3 1 0 10 19 22 26 31 30 29 29 27 27 28 30 29 29 28 27 26 25 22 19 17
8 10 10 7 4 2 3 4 4 5 5 7 6 20 16 17 15 15 9 8 4 4 4 1 3 2 3 4 2 2 1 6 10 19 23 26 28 29 29 30 29 30 31 30 30 30 28 25 22 20 20 21 19 17
8 6 3 2 4 5 3 4 7 5 11 12 16 22 11 8 7 8 6 3 6 7 8 3 1 1 1 2 1 3 9 14 20 21 24 26 30 28 28 28 28 29 30 31 29 25 21 17 17 17 17 16 17 16
5 3 5 8 11 3 4 5 5 6 5 7 10 11 4 4 6 7 14 8 8 5 6 4 3 3 2 2 3 6 13 21 29 28 25 25 24 23 24 27 30 33 31 27 24 22 21 20 19 18 16 17 17 18
8 9 10 9 7 3 4 5 5 5 9 7 16 18 7 11 11 9 11 9 7 5 2 4 5 4 1 2 3 12 17 23 22 29 35 29 25 28 31 31 31 29 28 26 24 22 19 19 20 18 17 16 15 15
11 12 8 6 3 3 5 4 8 14 6 10 11 8 5 5 6 9 8 12 5 6 6 6 6 5 6 11 17 18 23 25 25 31 31 33 34 32 33 31 29 27 23 21 19 17 17 16 16 13 11 11 13 12
11 9 6 3 3 3 6 8 4 4 3 8 9 3 3 4 6 5 4 4 3 8 6 4 4 7 13 15 19 20 19 25 32 30 30 30 32 32 30 26 22 22 22 19 15 12 14 15 14 13 12 11 10 10
7 3 3 3 2 4 7 3 4 5 5 4 3 3 4 5 7 4 3 2 7 9 8 9 11 15 20 21 24 23 24 26 28 25 28 33 32 26 23 21 17 16 16 15 12 13 15 16 14 15 12 9 8 7
3 2 2 3 2 3 3 3 3 2 3 3 4 3 3 6 3 3 2 7 9 14 13 12 14 21 28 28 23 23 23 26 32 33 28 25 27 26 22 18 15 16 14 12 11 13 16 14 13 12 9 8 6 6
1 1 1 4 4 3 3 3 4 3 2 2 2 4 4 2 4 3 3 8 9 9 11 13 17 22 22 24 25 22 21 23 25 26 24 22 20 19 18 18 18 17 13 9 9 11 12 13 12 12 10 8 6 4
3 3 3 4 5 5 4 4 4 3 2 3 2 3 2 3 3 3 4 7 5 8 10 13 14 18 21 22 22 22 23 22 19 18 19 21 18 11 9 12 10 8 13 11 9 7 7 12 12 10 8 8 8 8
2 3 2 8 4 3 3 3 3 3 3 6 3 5 2 3 2 5 5 7 9 12 16 22 25 26 26 27 26 24 22 20 22 21 19 16 11 12 10 8 5 6 12 11 11 10 10 11 9 8 7 6 7 7
3 3 4 4 3 3 2 2 3 4 7 5 2 2 3 5 7 8 9 11 13 15 22 24 24 24 26 26 25 25 23 21 21 18 16 15 14 10 6 6 7 11 13 13 13 11 8 9 9 8 5 5 3 3
3 4 3 4 3 3 4 8 9 8 3 5 5 13 15 13 12 13 14 14 13 14 16 18 22 21 19 18 17 14 12 10 8 8 12 12 11 7 6 4 9 10 12 11 9 7 7 10 11 10 8 4 3 5
3 4 3 2 2 6 7 9 11 14 16 19 17 16 11 8 11 10 10 9 9 10 13 14 15 15 15 15 13 11 11 10 10 8 6 5 4 5 5 3 6 10 9 10 9 6 7 8 7 7 7 4 6 7
1 2 2 2 3 6 4 6 8 11 14 12 9 9 7 4 4 3 4 5 3 4 7 9 10 11 12 12 11 10 8 6 4 3 5 4 4 6 14 10 7 10 12 11 10 9 9 9 9 8 9 11 10 8
1 2 2 2 1 1 1 2 3 2 3 3 3 4 2 1 1 3 3 3 4 7 7 7 8 10 12 12 9 7 7 6 5 6 7 7 6 6 11 14 11 10 10 10 10 10 10 11 9 8 8 7 8 11
Wind_Direction
308 310 309 305 305 300 299 289 287 300 306 321 331 335 334 290 285 302 297 234 234 252 266 262 246 252 293 301 255 323 341 354 339 358 161 201 162 211 107 165 172 152 135 163 91 90 189 179 99 154 174 137 140 127
305 311 310 306 302 298 294 297 285 284 299 301 324 326 330 323 282 277 266 212 243 264 266 280 275 270 259 259 273 292 277 274 287 6 351 321 220 124 145 197 50 157 174 168 164 201 255 169 193 166 145 141 145 132
305 307 306 304 301 296 293 290 278 277 292 294 301 316 318 317 305 279 267 252 267 282 290 273 271 276 259 250 252 226 254 218 23 344 279 266 259 136 144 229 117 52 135 98 111 40 96 135 133 140 145 138 136 132
302 308 309 304 299 298 288 280 272 279 282 296 293 302 309 305 302 284 275 262 245 281 278 284 279 265 250 241 238 235 238 255 293 309 229 248 242 193 191 154 139 191 130 138 78 86 98 126 139 143 140 140 136 134
295 293 299 302 304 308 301 290 267 266 274 289 297 296 298 301 296 286 273 256 246 231 281 293 304 294 259 248 237 227 230 242 278 290 224 236 242 149 358 85 146 190 162 143 198 176 136 156 149 149 146 148 150 142
295 292 295 296 299 305 302 294 277 269 269 286 288 294 294 296 295 305 254 243 228 222 268 307 301 293 277 236 212 201 215 236 230 257 255 266 256 191 101 153 243 209 186 150 145 149 144 150 155 158 152 152 146 135
298 295 294 296 298 294 295 295 282 271 275 289 297 298 294 294 285 259 233 183 171 161 245 285 282 264 223 176 190 189 201 210 221 257 249 270 276 184 120 152 178 157 160 146 143 138 133 156 161 161 155 154 151 145
301 299 298 296 297 288 289 283 287 286 289 295 299 303 294 287 284 271 238 213 197 225 236 265 266 292 176 177 123 147 174 183 219 260 272 266 306 327 120 188 133 131 133 137 145 160 154 158 159 162 163 158 155 153
305 302 300 303 294 283 287 290 302 300 299 303 299 296 287 260 239 241 203 208 221 220 265 249 233 243 178 142 143 127 207 187 233 239 245 303 279 221 203 150 147 142 142 142 150 155 156 160 162 162 162 163 160 158
313 310 304 294 298 301 304 300 306 307 300 293 283 245 234 207 174 146 185 191 213 212 195 243 278 248 184 149 141 188 191 185 209 267 293 82 271 283 169 157 147 147 149 150 141 142 159 163 165 164 167 165 165 161
317 317 319 298 301 307 310 293 311 328 329 317 225 246 253 227 200 199 223 199 174 215 212 221 221 227 195 162 134 211 160 234 181 261 44 15 301 284 157 157 156 155 156 161 166 168 173 175 168 167 166 166 165 160
329 322 319 314 304 309 309 315 306 324 283 282 291 287 282 225 228 229 204 209 209 225 197 180 206 211 185 175 104 192 165 215 130 97 54 277 258 202 165 163 161 166 164 162 170 168 174 172 170 172 167 163 163 157
333 326 323 316 298 299 306 301 308 299 271 285 253 237 212 188 228 215 208 218 219 227 185 171 148 166 103 131 88 145 128 135 117 134 174 235 235 185 172 169 166 169 169 159 156 162 166 170 172 172 160 160 156 151
335 327 313 310 299 299 299 308 306 269 249 246 228 260 231 213 226 224 241 304 295 277 290 156 115 78 247 161 166 131 136 122 178 188 200 194 186 177 172 168 168 164 162 158 156 159 163 166 163 161 157 152 153 147
332 323 310 302 309 315 315 313 286 236 243 253 232 241 238 242 241 249 257 267 265 268 250 170 103 113 82 65 242 147 151 191 219 216 182 171 169 176 169 168 164 161 163 159 157 155 152 149 147 145 146 144 144 142
342 330 324 334 326 319 315 298 260 217 251 248 239 257 268 270 280 286 304 294 306 292 216 170 142 136 177 159 171 196 175 214 222 218 148 155 158 164 164 163 159 158 155 151 150 148 143 141 139 133 132 134 139 142
337 346 338 333 332 335 314 269 267 243 247 248 245 258 267 277 271 285 295 295 324 355 38 350 97 87 96 88 196 181 199 200 174 143 154 157 158 161 160 157 151 152 152 151 147 142 139 140 138 136 136 137 141 143
339 328 330 337 17 110 216 255 254 243 255 257 258 258 256 255 264 286 297 311 319 125 130 163 146 122 196 179 219 214 120 100 138 144 151 155 159 153 155 153 153 152 149 146 144 141 140 140 141 145 145 143 143 142
351 351 4 331 313 316 261 237 217 255 240 238 249 279 267 264 269 317 319 262 177 153 144 136 124 132 245 283 56 111 128 126 127 136 136 150 153 159 158 153 148 147 147 144 141 139 141 142 142 143 142 140 140 137
352 331 302 308 310 288 273 272 269 274 282 296 303 304 323 54 75 39 51 81 90 56 41 22 4 340 6 317 351 136 143 140 132 125 131 145 145 145 146 148 147 145 141 139 141 144 143 139 136 133 132 133 129 123
335 340 329 313 309 269 272 294 275 284 305 319 341 354 12 40 42 38 25 24 59 34 33 358 332 345 216 166 205 171 159 153 147 145 145 143 142 140 134 142 141 143 144 144 141 138 137 140 141 137 133 134 130 127
327 333 314 324 299 291 275 276 287 302 295 306 336 3 340 23 17 14 3 37 42 356 338 352 13 76 125 136 147 151 154 158 154 149 148 147 145 145 146 146 143 142 140 137 133 139 148 152 150 145 151 167 168 160
327 330 333 314 305 279 286 313 304 318 310 313 349 28 13 2 5 9 68 48 27 9 9 58 79 107 117 122 130 133 146 153 148 147 148 145 142 144 145 147 150 147 145 142 141 147 161 159 154 154 153 150 155 174
331 308 315 309 296 286 310 301 300 305 317 346 359 351 343 342 348 52 74 75 26 47 101 127 125 121 119 113 115 124 135 141 139 140 143 141 142 145 145 142 145 144 141 142 139 144 147 151 156 161 150 143 140 138
328 335 315 302 287 290 274 285 298 325 343 330 336 320 343 348 35 47 23 356 23 56 78 116 129 129 118 112 111 124 135 141 140 141 147 147 144 145 148 146 145 148 147 139 147 163 167 169 167 169 168 164 174 206
2 303 12 335 311 334 326 322 336 331 318 323 321 309 355 41 36 36 341 357 29 48 69 97 115 118 122 133 136 140 141 149 148 142 148 156 150 145 147 152 158 167 160 143 121 153 175 174 172 170 170 180 193 198
336 1 317 307 297 298 290 286 288 286 312 353 348 342 16 47 24 349 22 33 60 94 85 96 115 128 128 133 129 130 141 148 148 145 149 155 156 158 155 145 154 157 171 169 165 147 160 183 184 193 201 214 226 235
283 290 284 317 306 290 287 301 314 350 335 343 338 23 54 31 359 23 43 74 92 114 114 118 119 119 121 124 126 128 132 148 154 149 150 160 157 150 155 157 166 168 187 187 182 177 174 180 192 199 207 228 244 246
280 294 311 308 309 287 284 321 320 354 344 347 57 42 52 53 76 67 88 113 107 120 125 129 130 122 117 123 123 119 117 120 132 134 136 141 148 165 171 177 180 176 181 194 193 202 227 215 209 209 242 250 219 201
320 341 330 335 340 336 359 359 354 2 41 61 86 109 100 92 86 75 74 87 110 132 135 141 147 152 147 140 139 137 135 133 134 129 134 129 135 133 104 128 177 172 162 163 173 192 212 213 215 222 198 210 271 295
337 341 346 350 341 4 10 71 59 66 88 105 116 105 93 92 95 91 94 97 102 117 135 141 144 151 162 169 175 174 164 154 141 140 147 163 207 225 206 125 137 175 184 183 182 179 175 172 186 206 222 264 284 296
326 348 18 20 334 33 84 51 59 71 81 90 76 93 86 68 62 72 75 68 92 155 168 171 169 161 150 150 155 155 149 159 172 197 207 214 244 265 208 200 176 178 184 192 200 211 219 222 222 233 266 280 282 281
44 5 351 356 16 33 53 52 57 66 59 75 80 80 82 44 220 189 181 111 107 160 171 160 154 169 181 183 184 192 222 235 225 218 230 240 239 234 207 202 209 216 212 214 221 224 232 236 242 258 275 263 276 291